Beaumont, TX

10:55 PM CST on February 08, 2016 (GMT -0600)
Beaumont Municipal

Weather History for KBMT - January, 2014

Change the Weather History Date:

Friday, January 3, 2014

  Actual Average (KBPT) Record (KBPT)
Temperature  
Mean Temperature 40 °F 52 °F  
Max Temperature 52 °F 62 °F 81 °F (1989)
Min Temperature 27 °F 43 °F 15 °F (1911)
Degree Days  
Heating Degree Days 26 13  
Month to date heating degree days 39  
Since 1 July heating degree days 589  
Cooling Degree Days 0 0  
Month to date cooling degree days 0  
Year to date cooling degree days 0  
Moisture  
Dew Point 26 °F    
Average Humidity 65    
Maximum Humidity 99    
Minimum Humidity 31    
Precipitation  
Precipitation 0.00 in 0.18 in 1.05 in (2015)
Month to date precipitation 0.51  
Year to date precipitation 0.51  
Snow  
Snow 0.00 in 0.00 in 0.40 in (1985)
Since 1 July snowfall T  
Snow Depth -    
Sea Level Pressure  
Sea Level Pressure 30.39 in    
Wind  
Wind Speed 4 mph (NE)    
Max Wind Speed 7 mph    
Max Gust Speed -    
Visibility 10 miles    
Events      
T = Trace of Precipitation, MM = Missing Value Source: NWS Daily Summary

Daily Weather History Graph

Daily Weather History Graph

Search for Another Location

Airport or City:

Trip Planner

Search our weather history database for the weather conditions in past years. The results will help you decide how hot, cold, wet, or windy it might be!

Date:

Astronomy

Jan. 03, 2014 Rise Set
Actual Time 7:13 AM CST 5:29 PM CST
Civil Twilight 6:47 AM CST 5:55 PM CST
Nautical Twilight 6:17 AM CST 6:25 PM CST
Astronomical Twilight 5:48 AM CST 6:54 PM CST
Moon 8:52 AM CST (1/3) 8:25 PM CST (1/3)
Length of Visible Light 11h 08m
Length of Day
10h 16m
Waxing Crescent, 8% of the Moon is Illuminated
Jan 3
Waxing Crescent
Jan 7
First Quarter
Jan 15
Full
Jan 23
Last Quarter
Jan 30
New

Hourly Weather History & Observations

Time (CST) Temp. Windchill Dew Point Humidity Pressure Visibility Wind Dir Wind Speed Gust Speed Precip Events Conditions
12:15 AM 31.5 °F 26.8 °F 27.1 °F 84% 30.44 in 10.0 mi NNW 4.6 mph - N/A   Clear
12:35 AM 32.0 °F 26.4 °F 26.6 °F 80% 30.44 in 10.0 mi NNW 5.8 mph - N/A   Clear
12:55 AM 32.0 °F 27.5 °F 26.4 °F 80% 30.44 in 10.0 mi North 4.6 mph - N/A   Clear
1:15 AM 31.5 °F 26.8 °F 26.4 °F 82% 30.44 in 10.0 mi NNW 4.6 mph - N/A   Clear
1:35 AM 30.7 °F 26.0 °F 26.6 °F 85% 30.44 in 10.0 mi NNW 4.6 mph - N/A   Clear
1:55 AM 30.4 °F 26.9 °F 26.6 °F 86% 30.44 in 10.0 mi NNW 3.5 mph - N/A   Clear
2:15 AM 30.7 °F 27.3 °F 26.4 °F 84% 30.44 in 10.0 mi NNW 3.5 mph - N/A   Clear
2:35 AM 30.0 °F 25.2 °F 26.2 °F 86% 30.44 in 10.0 mi NNW 4.6 mph - N/A   Clear
2:55 AM 30.2 °F 25.4 °F 26.1 °F 85% 30.44 in 10.0 mi North 4.6 mph - N/A   Clear
3:15 AM 29.7 °F 26.1 °F 25.9 °F 86% 30.44 in 10.0 mi North 3.5 mph - N/A   Clear
3:35 AM 30.2 °F 26.7 °F 25.5 °F 83% 30.45 in 10.0 mi North 3.5 mph - N/A   Clear
3:55 AM 30.2 °F 25.4 °F 25.2 °F 82% 30.44 in 10.0 mi North 4.6 mph - N/A   Clear
4:15 AM 29.7 °F 23.7 °F 25.2 °F 83% 30.44 in 10.0 mi North 5.8 mph - N/A   Clear
4:35 AM 29.7 °F 24.7 °F 25.2 °F 83% 30.44 in 10.0 mi North 4.6 mph - N/A   Clear
4:55 AM 28.9 °F 25.2 °F 24.6 °F 84% 30.44 in 10.0 mi NNW 3.5 mph - N/A   Clear
5:15 AM 27.9 °F 24.0 °F 24.8 °F 88% 30.44 in 10.0 mi North 3.5 mph - N/A   Clear
5:35 AM 28.2 °F 23.1 °F 24.8 °F 87% 30.45 in 10.0 mi NNW 4.6 mph - N/A   Clear
5:55 AM 28.0 °F 24.2 °F 24.6 °F 87% 30.45 in 10.0 mi NNW 3.5 mph - N/A   Clear
6:15 AM 27.5 °F 23.6 °F 25.0 °F 90% 30.46 in 10.0 mi North 3.5 mph - N/A   Clear
6:35 AM 28.4 °F 24.6 °F 25.2 °F 88% 30.46 in 10.0 mi North 3.5 mph - N/A   Clear
6:55 AM 29.1 °F 25.4 °F 24.8 °F 84% 30.46 in 10.0 mi North 3.5 mph - N/A   Clear
7:15 AM 29.1 °F 24.1 °F 24.3 °F 82% 30.46 in 10.0 mi NNE 4.6 mph - N/A   Clear
7:35 AM 29.3 °F 25.6 °F 24.6 °F 83% 30.46 in 10.0 mi NNE 3.5 mph - N/A   Clear
7:55 AM 31.5 °F 25.8 °F 25.5 °F 79% 30.46 in 10.0 mi NE 5.8 mph - N/A   Clear
8:15 AM 33.4 °F 27.3 °F 25.7 °F 73% 30.47 in 10.0 mi NE 6.9 mph - N/A   Clear
8:35 AM 34.2 °F 28.2 °F 25.3 °F 70% 30.48 in 10.0 mi NE 6.9 mph - N/A   Clear
8:55 AM 36.7 °F 31.2 °F 25.3 °F 64% 30.48 in 10.0 mi NE 6.9 mph - N/A   Clear
9:15 AM 38.7 °F 35.2 °F 25.3 °F 59% 30.48 in 10.0 mi ENE 4.6 mph - N/A   Clear
9:35 AM 39.9 °F 35.8 °F 24.1 °F 53% 30.49 in 10.0 mi ENE 5.8 mph - N/A   Clear
9:55 AM 40.3 °F 35.5 °F 23.7 °F 52% 30.49 in 10.0 mi East 6.9 mph - N/A   Clear
10:15 AM 41.5 °F 37.8 °F 23.7 °F 49% 30.49 in 10.0 mi East 5.8 mph - N/A   Clear
10:35 AM 42.8 °F - 23.4 °F 46% 30.48 in 10.0 mi Calm Calm - N/A   Clear
10:55 AM 44.1 °F 41.5 °F 23.5 °F 44% 30.47 in 10.0 mi ESE 4.6 mph - N/A   Clear
11:15 AM 45.0 °F 43.5 °F 23.4 °F 43% 30.47 in 10.0 mi ENE 3.5 mph - N/A   Clear
11:35 AM 45.3 °F - 22.8 °F 41% 30.46 in 10.0 mi Calm Calm - N/A   Clear
11:55 AM 45.0 °F 43.5 °F 23.2 °F 42% 30.45 in 10.0 mi East 3.5 mph - N/A   Clear
12:15 PM 47.5 °F - 22.6 °F 38% 30.43 in 10.0 mi Calm Calm - N/A   Clear
12:35 PM 48.7 °F - 23.7 °F 38% 30.42 in 10.0 mi Calm Calm - N/A   Clear
12:55 PM 48.6 °F - 22.8 °F 36% 30.41 in 10.0 mi South 5.8 mph - N/A   Clear
1:15 PM 50.2 °F - 23.4 °F 35% 30.39 in 10.0 mi Calm Calm - N/A   Clear
1:35 PM 49.6 °F - 22.3 °F 34% 30.38 in 10.0 mi South 4.6 mph - N/A   Clear
1:55 PM 50.7 °F - 23.0 °F 34% 30.37 in 10.0 mi ENE 3.5 mph - N/A   Clear
2:15 PM 51.8 °F - 22.6 °F 32% 30.36 in 10.0 mi SE 4.6 mph - N/A   Clear
2:35 PM 51.4 °F - 22.3 °F 32% 30.35 in 10.0 mi Calm Calm - N/A   Clear
2:55 PM 51.8 °F - 21.9 °F 31% 30.34 in 10.0 mi ESE 3.5 mph - N/A   Clear
3:15 PM 52.0 °F - 22.3 °F 31% 30.33 in 10.0 mi SSE 3.5 mph - N/A   Clear
3:35 PM 50.5 °F - 21.6 °F 32% 30.33 in 10.0 mi East 4.6 mph - N/A   Clear
3:55 PM 51.1 °F - 21.7 °F 32% 30.32 in 10.0 mi Calm Calm - N/A   Clear
4:15 PM 51.1 °F - 22.3 °F 32% 30.32 in 10.0 mi Calm Calm - N/A   Clear
4:35 PM 50.4 °F - 23.2 °F 35% 30.32 in 10.0 mi SE 3.5 mph - N/A   Clear
4:55 PM 49.1 °F - 23.7 °F 37% 30.31 in 10.0 mi SE 4.6 mph - N/A   Clear
5:15 PM 46.8 °F - 26.4 °F 45% 30.31 in 10.0 mi Calm Calm - N/A   Clear
5:35 PM 45.5 °F - 26.2 °F 47% 30.30 in 10.0 mi Calm Calm - N/A   Clear
5:55 PM 44.2 °F 41.8 °F 27.1 °F 51% 30.30 in 10.0 mi South 4.6 mph - N/A   Clear
6:15 PM 42.3 °F 39.4 °F 27.5 °F 56% 30.30 in 10.0 mi South 4.6 mph - N/A   Clear
6:35 PM 41.5 °F 39.6 °F 27.5 °F 57% 30.30 in 10.0 mi South 3.5 mph - N/A   Clear
6:55 PM 40.3 °F 37.1 °F 27.5 °F 60% 30.29 in 10.0 mi SSE 4.6 mph - N/A   Clear
7:15 PM 38.5 °F 34.1 °F 27.9 °F 66% 30.28 in 10.0 mi SE 5.8 mph - N/A   Clear
7:35 PM 38.3 °F 34.8 °F 28.4 °F 68% 30.29 in 10.0 mi SSE 4.6 mph - N/A   Clear
7:55 PM 38.3 °F 34.8 °F 28.4 °F 68% 30.29 in 10.0 mi SSE 4.6 mph - N/A   Clear
8:15 PM 37.6 °F 33.1 °F 29.3 °F 72% 30.29 in 10.0 mi SSE 5.8 mph - N/A   Clear
8:35 PM 36.9 °F 33.1 °F 29.5 °F 75% 30.29 in 10.0 mi SSE 4.6 mph - N/A   Clear
8:55 PM 37.2 °F 34.7 °F 29.7 °F 74% 30.29 in 10.0 mi SSE 3.5 mph - N/A   Clear
9:15 PM 36.1 °F - 29.3 °F 76% 30.28 in 10.0 mi Calm Calm - N/A   Clear
9:35 PM 35.6 °F - 29.7 °F 79% 30.28 in 10.0 mi Calm Calm - N/A   Clear
9:55 PM 35.2 °F - 29.5 °F 80% 30.28 in 10.0 mi Calm Calm - N/A   Clear
10:15 PM 34.2 °F - 29.7 °F 84% 30.27 in 10.0 mi Calm Calm - N/A   Clear
10:35 PM 32.9 °F - 29.3 °F 87% 30.27 in 10.0 mi Calm Calm - N/A   Clear
10:55 PM 32.0 °F - 29.8 °F 92% 30.27 in 10.0 mi Calm Calm - N/A   Clear
11:15 PM 31.6 °F - 31.1 °F 98% 30.26 in 10.0 mi Calm Calm - N/A   Clear
11:35 PM 31.8 °F - 29.3 °F 90% 30.26 in 10.0 mi Calm Calm - N/A   Clear
11:55 PM 31.3 °F - 31.1 °F 99% 30.25 in 10.0 mi Calm Calm - N/A   Clear